Year,Month,Day,Hour,Minute,Value (Times are PST for temperature in C)
2013,11,20,00,00,-0.60
2013,11,20,00,01,-0.60
2013,11,20,00,02,-0.60
2013,11,20,00,03,-0.60
2013,11,20,00,04,-0.60
2013,11,20,00,05,-0.60
2013,11,20,00,06,-0.60
2013,11,20,00,07,-0.60
2013,11,20,00,08,-0.60
2013,11,20,00,09,-0.60
2013,11,20,00,10,-0.60
2013,11,20,00,11,-0.60
2013,11,20,00,12,-0.60
2013,11,20,00,13,-0.60
2013,11,20,00,14,-0.60
2013,11,20,00,15,-0.60
2013,11,20,00,16,-0.60
2013,11,20,00,17,-0.60
2013,11,20,00,18,-0.50
2013,11,20,00,19,-0.40
2013,11,20,00,20,-0.40
2013,11,20,00,21,-0.40
2013,11,20,00,22,-0.40
2013,11,20,00,23,-0.30
2013,11,20,00,24,-0.30
2013,11,20,00,25,-0.30
2013,11,20,00,26,-0.20
2013,11,20,00,27,-0.20
2013,11,20,00,28,-0.30
2013,11,20,00,29,-0.30
2013,11,20,00,30,-0.30
2013,11,20,00,31,-0.30
2013,11,20,00,32,-0.30
2013,11,20,00,33,-0.40
2013,11,20,00,34,-0.40
2013,11,20,00,35,-0.40
2013,11,20,00,36,-0.40
2013,11,20,00,37,-0.40
2013,11,20,00,38,-0.50
2013,11,20,00,39,-0.60
2013,11,20,00,40,-0.60
2013,11,20,00,41,-0.60
2013,11,20,00,42,-0.60
2013,11,20,00,43,-0.60
2013,11,20,00,44,-0.60
2013,11,20,00,45,-0.60
2013,11,20,00,46,-0.60
2013,11,20,00,47,-0.60
2013,11,20,00,48,-0.60
2013,11,20,00,49,-0.60
2013,11,20,00,50,-0.60
2013,11,20,00,51,-0.60
2013,11,20,00,52,-0.60
2013,11,20,00,53,-0.60
2013,11,20,00,54,-0.60
2013,11,20,00,55,-0.60
2013,11,20,00,56,-0.60
2013,11,20,00,57,-0.60
2013,11,20,00,58,-0.60
2013,11,20,00,59,-0.60
2013,11,20,01,00,-0.60
2013,11,20,01,01,-0.60
2013,11,20,01,02,-0.60
2013,11,20,01,03,-0.60
2013,11,20,01,04,-0.60
2013,11,20,01,05,-0.50
2013,11,20,01,06,-0.40
2013,11,20,01,07,-0.40
2013,11,20,01,08,-0.30
2013,11,20,01,09,-0.20
2013,11,20,01,10,-0.10
2013,11,20,01,11,-0.10
2013,11,20,01,12,-0.10
2013,11,20,01,13,-0.10
2013,11,20,01,14,-0.10
2013,11,20,01,15,-0.20
2013,11,20,01,16,-0.20
2013,11,20,01,17,-0.30
2013,11,20,01,18,-0.30
2013,11,20,01,19,-0.20
2013,11,20,01,20,-0.20
2013,11,20,01,21,-0.10
2013,11,20,01,22,-0.10
2013,11,20,01,23,0.00
2013,11,20,01,24,0.10
2013,11,20,01,25,0.20
2013,11,20,01,26,0.20
2013,11,20,01,27,0.30
2013,11,20,01,28,0.40
2013,11,20,01,29,0.50
2013,11,20,01,30,0.60
2013,11,20,01,31,0.70
2013,11,20,01,32,0.80
2013,11,20,01,33,0.90
2013,11,20,01,34,1.00
2013,11,20,01,35,1.10
2013,11,20,01,36,1.20
2013,11,20,01,37,1.20
2013,11,20,01,38,1.30
2013,11,20,01,39,1.30
2013,11,20,01,40,1.30
2013,11,20,01,41,1.40
2013,11,20,01,42,1.40
2013,11,20,01,43,1.30
2013,11,20,01,44,1.30
2013,11,20,01,45,1.30
2013,11,20,01,46,1.30
2013,11,20,01,47,1.30
2013,11,20,01,48,1.30
2013,11,20,01,49,1.40
2013,11,20,01,50,1.40
2013,11,20,01,51,1.40
2013,11,20,01,52,1.50
2013,11,20,01,53,1.50
2013,11,20,01,54,1.50
2013,11,20,01,55,1.50
2013,11,20,01,56,1.50
2013,11,20,01,57,1.50
2013,11,20,01,58,1.60
2013,11,20,01,59,1.70
2013,11,20,02,00,1.70
2013,11,20,02,01,1.70
2013,11,20,02,02,1.70
2013,11,20,02,03,1.70
2013,11,20,02,04,1.70
2013,11,20,02,05,1.70
2013,11,20,02,06,1.70
2013,11,20,02,07,1.70
2013,11,20,02,08,1.70
2013,11,20,02,09,1.60
2013,11,20,02,10,1.50
2013,11,20,02,11,1.40
2013,11,20,02,12,1.30
2013,11,20,02,13,1.30
2013,11,20,02,14,1.20
2013,11,20,02,15,1.10
2013,11,20,02,16,1.20
2013,11,20,02,17,1.10
2013,11,20,02,18,1.10
2013,11,20,02,19,1.00
2013,11,20,02,20,1.00
2013,11,20,02,21,0.90
2013,11,20,02,22,0.90
2013,11,20,02,23,0.80
2013,11,20,02,24,0.80
2013,11,20,02,25,0.70
2013,11,20,02,26,0.60
2013,11,20,02,27,0.50
2013,11,20,02,28,0.50
2013,11,20,02,29,0.40
2013,11,20,02,30,0.40
2013,11,20,02,31,0.30
2013,11,20,02,32,0.20
2013,11,20,02,33,0.10
2013,11,20,02,34,0.10
2013,11,20,02,35,0.00
2013,11,20,02,36,-0.10
2013,11,20,02,37,-0.10
2013,11,20,02,38,-0.20
2013,11,20,02,39,-0.20
2013,11,20,02,40,-0.30
2013,11,20,02,41,-0.30
2013,11,20,02,42,-0.40
2013,11,20,02,43,-0.40
2013,11,20,02,44,-0.40
2013,11,20,02,45,-0.40
2013,11,20,02,46,-0.40
2013,11,20,02,47,-0.40
2013,11,20,02,48,-0.40
2013,11,20,02,49,-0.40
2013,11,20,02,50,-0.40
2013,11,20,02,51,-0.50
2013,11,20,02,52,-0.60
2013,11,20,02,53,-0.60
2013,11,20,02,54,-0.60
2013,11,20,02,55,-0.60
2013,11,20,02,56,-0.60
2013,11,20,02,57,-0.60
2013,11,20,02,58,-0.60
2013,11,20,02,59,-0.60
2013,11,20,03,00,-0.60
2013,11,20,03,01,-0.70
2013,11,20,03,02,-0.70
2013,11,20,03,03,-0.70
2013,11,20,03,04,-0.80
2013,11,20,03,05,-0.80
2013,11,20,03,06,-0.80
2013,11,20,03,07,-0.80
2013,11,20,03,08,-0.90
2013,11,20,03,09,-0.90
2013,11,20,03,10,-0.80
2013,11,20,03,11,-0.80
2013,11,20,03,12,-0.70
2013,11,20,03,13,-0.70
2013,11,20,03,14,-0.70
2013,11,20,03,15,-0.60
2013,11,20,03,16,-0.60
2013,11,20,03,17,-0.60
2013,11,20,03,18,-0.50
2013,11,20,03,19,-0.20
2013,11,20,03,20,-0.10
2013,11,20,03,21,0.00
2013,11,20,03,22,0.10
2013,11,20,03,23,0.10
2013,11,20,03,24,0.10
2013,11,20,03,25,0.10
2013,11,20,03,26,0.10
2013,11,20,03,27,0.20
2013,11,20,03,28,0.30
2013,11,20,03,29,0.30
2013,11,20,03,30,0.30
2013,11,20,03,31,0.30
2013,11,20,03,32,0.30
2013,11,20,03,33,0.20
2013,11,20,03,34,0.10
2013,11,20,03,35,0.10
2013,11,20,03,36,0.10
2013,11,20,03,37,0.00
2013,11,20,03,38,-0.10
2013,11,20,03,39,-0.10
2013,11,20,03,40,0.10
2013,11,20,03,41,0.10
2013,11,20,03,42,0.10
2013,11,20,03,43,0.10
2013,11,20,03,44,0.10
2013,11,20,03,45,0.10
2013,11,20,03,46,0.10
2013,11,20,03,47,0.10
2013,11,20,03,48,0.10
2013,11,20,03,49,-0.10
2013,11,20,03,50,-0.10
2013,11,20,03,51,-0.10
2013,11,20,03,52,-0.20
2013,11,20,03,53,-0.20
2013,11,20,03,54,-0.30
2013,11,20,03,55,-0.40
2013,11,20,03,56,-0.40
2013,11,20,03,57,-0.50
2013,11,20,03,58,-0.60
2013,11,20,03,59,-0.60
2013,11,20,04,00,-0.60
2013,11,20,04,01,-0.60
2013,11,20,04,02,-0.60
2013,11,20,04,03,-0.70
2013,11,20,04,04,-0.70
2013,11,20,04,05,-0.80
2013,11,20,04,06,-0.80
2013,11,20,04,07,-0.80
2013,11,20,04,08,-0.90
2013,11,20,04,09,-0.90
2013,11,20,04,10,-0.90
2013,11,20,04,11,-0.90
2013,11,20,04,12,-0.90
2013,11,20,04,13,-0.90
2013,11,20,04,14,-0.90
2013,11,20,04,15,-0.90
2013,11,20,04,16,-0.90
2013,11,20,04,17,-1.10
2013,11,20,04,18,-1.10
2013,11,20,04,19,-1.10
2013,11,20,04,20,-1.10
2013,11,20,04,21,-1.10
2013,11,20,04,22,-1.10
2013,11,20,04,23,-1.10
2013,11,20,04,24,-1.10
2013,11,20,04,25,-1.10
2013,11,20,04,26,-1.10
2013,11,20,04,27,-1.20
2013,11,20,04,28,-1.20
2013,11,20,04,29,-1.20
2013,11,20,04,30,-1.20
2013,11,20,04,31,-1.20
2013,11,20,04,32,-1.20
2013,11,20,04,33,-1.20
2013,11,20,04,34,-1.20
2013,11,20,04,35,-1.20
2013,11,20,04,36,-1.10
2013,11,20,04,37,-1.10
2013,11,20,04,38,-1.10
2013,11,20,04,39,-1.10
2013,11,20,04,40,-1.20
2013,11,20,04,41,-1.20
2013,11,20,04,42,-1.20
2013,11,20,04,43,-1.20
2013,11,20,04,44,-1.20
2013,11,20,04,45,-1.20
2013,11,20,04,46,-1.20
2013,11,20,04,47,-1.20
2013,11,20,04,48,-1.20
2013,11,20,04,49,-1.20
2013,11,20,04,50,-1.20
2013,11,20,04,51,-1.10
2013,11,20,04,52,-1.10
2013,11,20,04,53,-1.10
2013,11,20,04,54,-1.10
2013,11,20,04,55,-1.10
2013,11,20,04,56,-1.10
2013,11,20,04,57,-1.10
2013,11,20,04,58,-1.20
2013,11,20,04,59,-1.20
2013,11,20,05,00,-1.20
2013,11,20,05,01,-1.30
2013,11,20,05,02,-1.30
2013,11,20,05,03,-1.30
2013,11,20,05,04,-1.30
2013,11,20,05,05,-1.30
2013,11,20,05,06,-1.30
2013,11,20,05,07,-1.30
2013,11,20,05,08,-1.30
2013,11,20,05,09,-1.30
2013,11,20,05,10,-1.40
2013,11,20,05,11,-1.40
2013,11,20,05,12,-1.40
2013,11,20,05,13,-1.40
2013,11,20,05,14,-1.40
2013,11,20,05,15,-1.40
2013,11,20,05,16,-1.40
2013,11,20,05,17,-1.40
2013,11,20,05,18,-1.40
2013,11,20,05,19,-1.40
2013,11,20,05,20,-1.40
2013,11,20,05,21,-1.40
2013,11,20,05,22,-1.40
2013,11,20,05,23,-1.40
2013,11,20,05,24,-1.40
2013,11,20,05,25,-1.40
2013,11,20,05,26,-1.40
2013,11,20,05,27,-1.40
2013,11,20,05,28,-1.40
2013,11,20,05,29,-1.40
2013,11,20,05,30,-1.40
2013,11,20,05,31,-1.40
2013,11,20,05,32,-1.40
2013,11,20,05,33,-1.40
2013,11,20,05,34,-1.30
2013,11,20,05,35,-1.30
2013,11,20,05,36,-1.30
2013,11,20,05,37,-1.30
2013,11,20,05,38,-1.30
2013,11,20,05,39,-1.30
2013,11,20,05,40,-1.30
2013,11,20,05,41,-1.30
2013,11,20,05,42,-1.30
2013,11,20,05,43,-1.30
2013,11,20,05,44,-1.20
2013,11,20,05,45,-1.20
2013,11,20,05,46,-1.20
2013,11,20,05,47,-1.20
2013,11,20,05,48,-1.10
2013,11,20,05,49,-1.10
2013,11,20,05,50,-1.10
2013,11,20,05,51,-1.10
2013,11,20,05,52,-1.10
2013,11,20,05,53,-1.10
2013,11,20,05,54,-1.10
2013,11,20,05,55,-1.10
2013,11,20,05,56,-1.10
2013,11,20,05,57,-1.10
2013,11,20,05,58,-1.10
2013,11,20,05,59,-1.10
2013,11,20,06,00,-1.00
2013,11,20,06,01,-0.90
2013,11,20,06,02,-0.90
2013,11,20,06,03,-0.90
2013,11,20,06,04,-0.90
2013,11,20,06,05,-0.90
2013,11,20,06,06,-1.00
2013,11,20,06,07,-1.10
2013,11,20,06,08,-1.10
2013,11,20,06,09,-1.10
2013,11,20,06,10,-1.10
2013,11,20,06,11,-1.10
2013,11,20,06,12,-1.10
2013,11,20,06,13,-1.10
2013,11,20,06,14,-1.10
2013,11,20,06,15,-1.10
2013,11,20,06,16,-1.10
2013,11,20,06,17,-1.10
2013,11,20,06,18,-1.10
2013,11,20,06,19,-0.90
2013,11,20,06,20,-0.90
2013,11,20,06,21,-0.90
2013,11,20,06,22,-0.90
2013,11,20,06,23,-0.90
2013,11,20,06,24,-0.90
2013,11,20,06,25,-0.90
2013,11,20,06,26,-0.90
2013,11,20,06,27,-0.90
2013,11,20,06,28,-0.90
2013,11,20,06,29,-0.90
2013,11,20,06,30,-0.90
2013,11,20,06,31,-0.90
2013,11,20,06,32,-0.90
2013,11,20,06,33,-0.90
2013,11,20,06,34,-0.90
2013,11,20,06,35,-0.90
2013,11,20,06,36,-0.90
2013,11,20,06,37,-0.90
2013,11,20,06,38,-0.90
2013,11,20,06,39,-0.90
2013,11,20,06,40,-0.90
2013,11,20,06,41,-0.90
2013,11,20,06,42,-0.90
2013,11,20,06,43,-0.90
2013,11,20,06,44,-0.90
2013,11,20,06,45,-0.90
2013,11,20,06,46,-0.90
2013,11,20,06,47,-0.90
2013,11,20,06,48,-0.90
2013,11,20,06,49,-0.90
2013,11,20,06,50,-0.90
2013,11,20,06,51,-0.90
2013,11,20,06,52,-0.90
2013,11,20,06,53,-0.90
2013,11,20,06,54,-0.90
2013,11,20,06,55,-0.90
2013,11,20,06,56,-0.90
2013,11,20,06,57,-0.90
2013,11,20,06,58,-0.90
2013,11,20,06,59,-0.80
2013,11,20,07,00,-0.80
2013,11,20,07,01,-0.80
2013,11,20,07,02,-0.80
2013,11,20,07,03,-0.80
2013,11,20,07,04,-0.80
2013,11,20,07,05,-0.80
2013,11,20,07,06,-0.80
2013,11,20,07,07,-0.80
2013,11,20,07,08,-0.80
2013,11,20,07,09,-0.80
2013,11,20,07,10,-0.80
2013,11,20,07,11,-0.80
2013,11,20,07,12,-0.80
2013,11,20,07,13,-0.80
2013,11,20,07,14,-0.80
2013,11,20,07,15,-0.80
2013,11,20,07,16,-0.80
2013,11,20,07,17,-0.80
2013,11,20,07,18,-0.70
2013,11,20,07,19,-0.70
2013,11,20,07,20,-0.70
2013,11,20,07,21,-0.70
2013,11,20,07,22,-0.70
2013,11,20,07,23,-0.70
2013,11,20,07,24,-0.70
2013,11,20,07,25,-0.70
2013,11,20,07,26,-0.70
2013,11,20,07,27,-0.60
2013,11,20,07,28,-0.60
2013,11,20,07,29,-0.60
2013,11,20,07,30,-0.60
2013,11,20,07,31,-0.60
2013,11,20,07,32,-0.60
2013,11,20,07,33,-0.60
2013,11,20,07,34,-0.50
2013,11,20,07,35,-0.40
2013,11,20,07,36,-0.40
2013,11,20,07,37,-0.40
2013,11,20,07,38,-0.40
2013,11,20,07,39,-0.40
2013,11,20,07,40,-0.40
2013,11,20,07,41,-0.30
2013,11,20,07,42,-0.30
2013,11,20,07,43,-0.20
2013,11,20,07,44,-0.20
2013,11,20,07,45,-0.20
2013,11,20,07,46,-0.10
2013,11,20,07,47,-0.10
2013,11,20,07,48,-0.10
2013,11,20,07,49,-0.10
2013,11,20,07,50,0.10
2013,11,20,07,51,0.10
2013,11,20,07,52,0.10
2013,11,20,07,53,0.10
2013,11,20,07,54,0.10
2013,11,20,07,55,0.20
2013,11,20,07,56,0.20
2013,11,20,07,57,0.30
2013,11,20,07,58,0.30
2013,11,20,07,59,0.40
2013,11,20,08,00,0.50
2013,11,20,08,01,0.50
2013,11,20,08,02,0.60
2013,11,20,08,03,0.60
2013,11,20,08,04,0.70
2013,11,20,08,05,0.80
2013,11,20,08,06,0.80
2013,11,20,08,07,0.90
2013,11,20,08,08,0.90
2013,11,20,08,09,1.00
2013,11,20,08,10,1.00
2013,11,20,08,11,1.00
2013,11,20,08,12,1.00
2013,11,20,08,13,1.00
2013,11,20,08,14,1.00
2013,11,20,08,15,1.10
2013,11,20,08,16,1.10
2013,11,20,08,17,1.10
2013,11,20,08,18,1.20
2013,11,20,08,19,1.20
2013,11,20,08,20,1.30
2013,11,20,08,21,1.30
2013,11,20,08,22,1.40
2013,11,20,08,23,1.40
2013,11,20,08,24,1.50
2013,11,20,08,25,1.50
2013,11,20,08,26,1.60
2013,11,20,08,27,1.60
2013,11,20,08,28,1.60
2013,11,20,08,29,1.60
2013,11,20,08,30,1.60
2013,11,20,08,31,1.70
2013,11,20,08,32,1.80
2013,11,20,08,33,1.80
2013,11,20,08,34,1.80
2013,11,20,08,35,1.90
2013,11,20,08,36,2.00
2013,11,20,08,37,2.00
2013,11,20,08,38,2.00
2013,11,20,08,39,2.10
2013,11,20,08,40,2.10
2013,11,20,08,41,2.10
2013,11,20,08,42,2.10
2013,11,20,08,43,2.10
2013,11,20,08,44,2.10
2013,11,20,08,45,2.10
2013,11,20,08,46,2.20
2013,11,20,08,47,2.20
2013,11,20,08,48,2.20
2013,11,20,08,49,2.20
2013,11,20,08,50,2.20
2013,11,20,08,51,2.20
2013,11,20,08,52,2.20
2013,11,20,08,53,2.20
2013,11,20,08,54,2.20
2013,11,20,08,55,2.20
2013,11,20,08,56,2.30
2013,11,20,08,57,2.30
2013,11,20,08,58,2.20
2013,11,20,08,59,2.30
2013,11,20,09,00,2.30
2013,11,20,09,01,2.30
2013,11,20,09,02,2.30
2013,11,20,09,03,2.30
2013,11,20,09,04,2.30
2013,11,20,09,05,2.30
2013,11,20,09,06,2.40
2013,11,20,09,07,2.40
2013,11,20,09,08,2.40
2013,11,20,09,09,2.40
2013,11,20,09,10,2.40
2013,11,20,09,11,2.40
2013,11,20,09,12,2.40
2013,11,20,09,13,2.40
2013,11,20,09,14,2.40
2013,11,20,09,15,2.40
2013,11,20,09,16,2.50
2013,11,20,09,17,2.40
2013,11,20,09,18,2.50
2013,11,20,09,19,2.50
2013,11,20,09,20,2.50
2013,11,20,09,21,2.50
2013,11,20,09,22,2.50
2013,11,20,09,23,2.60
2013,11,20,09,24,2.60
2013,11,20,09,25,2.60
2013,11,20,09,26,2.60
2013,11,20,09,27,2.70
2013,11,20,09,28,2.70
2013,11,20,09,29,2.70
2013,11,20,09,30,2.70
2013,11,20,09,31,2.70
2013,11,20,09,32,2.80
2013,11,20,09,33,2.80
2013,11,20,09,34,2.80
2013,11,20,09,35,2.90
2013,11,20,09,36,2.90
2013,11,20,09,37,2.90
2013,11,20,09,38,2.90
2013,11,20,09,39,2.90
2013,11,20,09,40,2.90
2013,11,20,09,41,2.90
2013,11,20,09,42,2.90
2013,11,20,09,43,2.90
2013,11,20,09,44,2.90
2013,11,20,09,45,2.90
2013,11,20,09,46,2.90
2013,11,20,09,47,2.90
2013,11,20,09,48,2.90
2013,11,20,09,49,2.90
2013,11,20,09,50,3.00
2013,11,20,09,51,3.10
2013,11,20,09,52,3.10
2013,11,20,09,53,3.10
2013,11,20,09,54,3.10
2013,11,20,09,55,3.10
2013,11,20,09,56,3.10
2013,11,20,09,57,3.10
2013,11,20,09,58,3.10
2013,11,20,09,59,3.10
2013,11,20,10,00,3.10
2013,11,20,10,01,3.10
2013,11,20,10,02,3.20
2013,11,20,10,03,3.20
2013,11,20,10,04,3.20
2013,11,20,10,05,3.20
2013,11,20,10,06,3.30
2013,11,20,10,07,3.30
2013,11,20,10,08,3.30
2013,11,20,10,09,3.40
2013,11,20,10,10,3.40
2013,11,20,10,11,3.40
2013,11,20,10,12,3.40
2013,11,20,10,13,3.50
2013,11,20,10,14,3.50
2013,11,20,10,15,3.50
2013,11,20,10,16,3.60
2013,11,20,10,17,3.60
2013,11,20,10,18,3.60
2013,11,20,10,19,3.50
2013,11,20,10,20,3.50
2013,11,20,10,21,3.50
2013,11,20,10,22,3.50
2013,11,20,10,23,3.50
2013,11,20,10,24,3.50
2013,11,20,10,25,3.50
2013,11,20,10,26,3.40
2013,11,20,10,27,3.40
2013,11,20,10,28,3.40
2013,11,20,10,29,3.40
2013,11,20,10,30,3.50
2013,11,20,10,31,3.50
2013,11,20,10,32,3.60
2013,11,20,10,33,3.60
2013,11,20,10,34,3.60
2013,11,20,10,35,3.60
2013,11,20,10,36,3.60
2013,11,20,10,37,3.70
2013,11,20,10,38,3.70
2013,11,20,10,39,3.70
2013,11,20,10,40,3.70
2013,11,20,10,41,3.80
2013,11,20,10,42,3.80
2013,11,20,10,43,3.80
2013,11,20,10,44,3.80
2013,11,20,10,45,3.90
2013,11,20,10,46,3.90
2013,11,20,10,47,3.90
2013,11,20,10,48,3.80
2013,11,20,10,49,3.80
2013,11,20,10,50,3.80
2013,11,20,10,51,3.80
2013,11,20,10,52,3.80
2013,11,20,10,53,3.90
2013,11,20,10,54,3.90
2013,11,20,10,55,3.90
2013,11,20,10,56,4.00
2013,11,20,10,57,4.00
2013,11,20,10,58,4.00
2013,11,20,10,59,4.10
2013,11,20,11,00,4.10
2013,11,20,11,01,4.10
2013,11,20,11,02,4.10
2013,11,20,11,03,4.10
2013,11,20,11,04,4.10
2013,11,20,11,05,4.10
2013,11,20,11,06,4.10
2013,11,20,11,07,4.10
2013,11,20,11,08,4.00
2013,11,20,11,09,4.00
2013,11,20,11,10,4.00
2013,11,20,11,11,4.00
2013,11,20,11,12,4.00
2013,11,20,11,13,4.00
2013,11,20,11,14,4.00
2013,11,20,11,15,4.10
2013,11,20,11,16,4.10
2013,11,20,11,17,4.10
2013,11,20,11,18,4.10
2013,11,20,11,19,4.20
2013,11,20,11,20,4.20
2013,11,20,11,21,4.20
2013,11,20,11,22,4.20
2013,11,20,11,23,4.20
2013,11,20,11,24,4.20
2013,11,20,11,25,4.20
2013,11,20,11,26,4.20
2013,11,20,11,27,4.20
2013,11,20,11,28,4.30
2013,11,20,11,29,4.30
2013,11,20,11,30,4.30
2013,11,20,11,31,4.30
2013,11,20,11,32,4.40
2013,11,20,11,33,4.40
2013,11,20,11,34,4.40
2013,11,20,11,35,4.40
2013,11,20,11,36,4.40
2013,11,20,11,37,4.40
2013,11,20,11,38,4.40
2013,11,20,11,39,4.30
2013,11,20,11,40,4.30
2013,11,20,11,41,4.40
2013,11,20,11,42,4.40
2013,11,20,11,43,4.30
2013,11,20,11,44,4.20
2013,11,20,11,45,4.20
2013,11,20,11,46,4.20
2013,11,20,11,47,4.00
2013,11,20,11,48,4.00
2013,11,20,11,49,3.90
2013,11,20,11,50,3.80
2013,11,20,11,51,3.80
2013,11,20,11,52,3.80
2013,11,20,11,53,3.80
2013,11,20,11,54,3.80
2013,11,20,11,55,3.80
2013,11,20,11,56,3.80
2013,11,20,11,57,3.80
2013,11,20,11,58,3.80
2013,11,20,11,59,3.80
2013,11,20,12,00,3.70
2013,11,20,12,01,3.80
2013,11,20,12,02,3.80
2013,11,20,12,03,3.80
2013,11,20,12,04,3.80
2013,11,20,12,05,3.80
2013,11,20,12,06,3.80
2013,11,20,12,07,3.80
2013,11,20,12,08,3.80
2013,11,20,12,09,3.80
2013,11,20,12,10,3.80
2013,11,20,12,11,3.70
2013,11,20,12,12,3.70
2013,11,20,12,13,3.70
2013,11,20,12,14,3.70
2013,11,20,12,15,3.80
2013,11,20,12,16,3.70
2013,11,20,12,17,3.70
2013,11,20,12,18,3.60
2013,11,20,12,19,3.60
2013,11,20,12,20,3.60
2013,11,20,12,21,3.60
2013,11,20,12,22,3.70
2013,11,20,12,23,3.70
2013,11,20,12,24,3.70
2013,11,20,12,25,3.70
2013,11,20,12,26,3.70
2013,11,20,12,27,3.60
2013,11,20,12,28,3.60
2013,11,20,12,29,3.60
2013,11,20,12,30,3.60
2013,11,20,12,31,3.60
2013,11,20,12,32,3.60
2013,11,20,12,33,3.60
2013,11,20,12,34,3.60
2013,11,20,12,35,3.60
2013,11,20,12,36,3.60
2013,11,20,12,37,3.70
2013,11,20,12,38,3.70
2013,11,20,12,39,3.70
2013,11,20,12,40,3.70
2013,11,20,12,41,3.70
2013,11,20,12,42,3.70
2013,11,20,12,43,3.70
2013,11,20,12,44,3.70
2013,11,20,12,45,3.70
2013,11,20,12,46,3.70
2013,11,20,12,47,3.60
2013,11,20,12,48,3.60
2013,11,20,12,49,3.60
2013,11,20,12,50,3.60
2013,11,20,12,51,3.60
2013,11,20,12,52,3.60
2013,11,20,12,53,3.60
2013,11,20,12,54,3.60
2013,11,20,12,55,3.60
2013,11,20,12,56,3.60
2013,11,20,12,57,3.60
2013,11,20,12,58,3.60
2013,11,20,12,59,3.60
2013,11,20,13,00,3.60
2013,11,20,13,01,3.50
2013,11,20,13,02,3.50
2013,11,20,13,03,3.50
2013,11,20,13,04,3.50
2013,11,20,13,05,3.60
2013,11,20,13,06,3.60
2013,11,20,13,07,3.60
2013,11,20,13,08,3.60
2013,11,20,13,09,3.60
2013,11,20,13,10,3.50
2013,11,20,13,11,3.50
2013,11,20,13,12,3.50
2013,11,20,13,13,3.50
2013,11,20,13,14,3.50
2013,11,20,13,15,3.50
2013,11,20,13,16,3.50
2013,11,20,13,17,3.50
2013,11,20,13,18,3.50
2013,11,20,13,19,3.50
2013,11,20,13,20,3.50
2013,11,20,13,21,3.50
2013,11,20,13,22,3.50
2013,11,20,13,23,3.50
2013,11,20,13,24,3.50
2013,11,20,13,25,3.50
2013,11,20,13,26,3.50
2013,11,20,13,27,3.50
2013,11,20,13,28,3.40
2013,11,20,13,29,3.40
2013,11,20,13,30,3.40
2013,11,20,13,31,3.40
2013,11,20,13,32,3.40
2013,11,20,13,33,3.40
2013,11,20,13,34,3.40
2013,11,20,13,35,3.40
2013,11,20,13,36,3.40
2013,11,20,13,37,3.40
2013,11,20,13,38,3.40
2013,11,20,13,39,3.40
2013,11,20,13,40,3.40
2013,11,20,13,41,3.40
2013,11,20,13,42,3.40
2013,11,20,13,43,3.40
2013,11,20,13,44,3.40
2013,11,20,13,45,3.40
2013,11,20,13,46,3.40
2013,11,20,13,47,3.40
2013,11,20,13,48,3.40
2013,11,20,13,49,3.40
2013,11,20,13,50,3.40
2013,11,20,13,51,3.40
2013,11,20,13,52,3.40
2013,11,20,13,53,3.40
2013,11,20,13,54,3.40
2013,11,20,13,55,3.40
2013,11,20,13,56,3.40
2013,11,20,13,57,3.40
2013,11,20,13,58,3.40
2013,11,20,13,59,3.40
2013,11,20,14,00,3.40
2013,11,20,14,01,3.40
2013,11,20,14,02,3.40
2013,11,20,14,03,3.40
2013,11,20,14,04,3.40
2013,11,20,14,05,3.40
2013,11,20,14,06,3.40
2013,11,20,14,07,3.50
2013,11,20,14,08,3.50
2013,11,20,14,09,3.50
2013,11,20,14,10,3.50
2013,11,20,14,11,3.50
2013,11,20,14,12,3.50
2013,11,20,14,13,3.50
2013,11,20,14,14,3.50
2013,11,20,14,15,3.50
2013,11,20,14,16,3.60
2013,11,20,14,17,3.60
2013,11,20,14,18,3.50
2013,11,20,14,19,3.50
2013,11,20,14,20,3.50
2013,11,20,14,21,3.50
2013,11,20,14,22,3.40
2013,11,20,14,23,3.40
2013,11,20,14,24,3.50
2013,11,20,14,25,3.50
2013,11,20,14,26,3.50
2013,11,20,14,27,3.50
2013,11,20,14,28,3.50
2013,11,20,14,29,3.50
2013,11,20,14,30,3.50
2013,11,20,14,31,3.60
2013,11,20,14,32,3.60
2013,11,20,14,33,3.70
2013,11,20,14,34,3.70
2013,11,20,14,35,3.70
2013,11,20,14,36,3.80
2013,11,20,14,37,3.80
2013,11,20,14,38,3.80
2013,11,20,14,39,3.80
2013,11,20,14,40,3.80
2013,11,20,14,41,3.80
2013,11,20,14,42,3.80
2013,11,20,14,43,3.80
2013,11,20,14,44,3.80
2013,11,20,14,45,3.70
2013,11,20,14,46,3.70
2013,11,20,14,47,3.70
2013,11,20,14,48,3.60
2013,11,20,14,49,3.60
2013,11,20,14,50,3.60
2013,11,20,14,51,3.60
2013,11,20,14,52,3.60
2013,11,20,14,53,3.60
2013,11,20,14,54,3.60
2013,11,20,14,55,3.60
2013,11,20,14,56,3.60
2013,11,20,14,57,3.60
2013,11,20,14,58,3.60
2013,11,20,14,59,3.60
2013,11,20,15,00,3.60
2013,11,20,15,01,3.60
2013,11,20,15,02,3.60
2013,11,20,15,03,3.60
2013,11,20,15,04,3.50
2013,11,20,15,05,3.50
2013,11,20,15,06,3.50
2013,11,20,15,07,3.50
2013,11,20,15,08,3.50
2013,11,20,15,09,3.40
2013,11,20,15,10,3.40
2013,11,20,15,11,3.40
2013,11,20,15,12,3.40
2013,11,20,15,13,3.40
2013,11,20,15,14,3.40
2013,11,20,15,15,3.40
2013,11,20,15,16,3.40
2013,11,20,15,17,3.30
2013,11,20,15,18,3.30
2013,11,20,15,19,3.30
2013,11,20,15,20,3.30
2013,11,20,15,21,3.30
2013,11,20,15,22,3.30
2013,11,20,15,23,3.30
2013,11,20,15,24,3.30
2013,11,20,15,25,3.30
2013,11,20,15,26,3.20
2013,11,20,15,27,3.20
2013,11,20,15,28,3.20
2013,11,20,15,29,3.20
2013,11,20,15,30,3.20
2013,11,20,15,31,3.20
2013,11,20,15,32,3.20
2013,11,20,15,33,3.20
2013,11,20,15,34,3.20
2013,11,20,15,35,3.20
2013,11,20,15,36,3.20
2013,11,20,15,37,3.20
2013,11,20,15,38,3.20
2013,11,20,15,39,3.20
2013,11,20,15,40,3.10
2013,11,20,15,41,3.10
2013,11,20,15,42,3.10
2013,11,20,15,43,3.10
2013,11,20,15,44,3.10
2013,11,20,15,45,3.00
2013,11,20,15,46,2.90
2013,11,20,15,47,2.90
2013,11,20,15,48,2.90
2013,11,20,15,49,2.80
2013,11,20,15,50,2.70
2013,11,20,15,51,2.70
2013,11,20,15,52,2.70
2013,11,20,15,53,2.60
2013,11,20,15,54,2.60
2013,11,20,15,55,2.60
2013,11,20,15,56,2.50
2013,11,20,15,57,2.50
2013,11,20,15,58,2.50
2013,11,20,15,59,2.40
2013,11,20,16,00,2.40
2013,11,20,16,01,2.40
2013,11,20,16,02,2.30
2013,11,20,16,03,2.30
2013,11,20,16,04,2.20
2013,11,20,16,05,2.20
2013,11,20,16,06,2.20
2013,11,20,16,07,2.20
2013,11,20,16,08,2.10
2013,11,20,16,09,2.10
2013,11,20,16,10,2.00
2013,11,20,16,11,2.00
2013,11,20,16,12,1.90
2013,11,20,16,13,1.90
2013,11,20,16,14,1.90
2013,11,20,16,15,1.90
2013,11,20,16,16,1.80
2013,11,20,16,17,1.80
2013,11,20,16,18,1.80
2013,11,20,16,19,1.80
2013,11,20,16,20,1.80
2013,11,20,16,21,1.80
2013,11,20,16,22,1.80
2013,11,20,16,23,1.70
2013,11,20,16,24,1.70
2013,11,20,16,25,1.70
2013,11,20,16,26,1.70
2013,11,20,16,27,1.70
2013,11,20,16,28,1.60
2013,11,20,16,29,1.60
2013,11,20,16,30,1.60
2013,11,20,16,31,1.60
2013,11,20,16,32,1.50
2013,11,20,16,33,1.50
2013,11,20,16,34,1.50
2013,11,20,16,35,1.50
2013,11,20,16,36,1.50
2013,11,20,16,37,1.40
2013,11,20,16,38,1.40
2013,11,20,16,39,1.40
2013,11,20,16,40,1.30
2013,11,20,16,41,1.30
2013,11,20,16,42,1.30
2013,11,20,16,43,1.30
2013,11,20,16,44,1.30
2013,11,20,16,45,1.20
2013,11,20,16,46,1.20
2013,11,20,16,47,1.20
2013,11,20,16,48,1.20
2013,11,20,16,49,1.20
2013,11,20,16,50,1.20
2013,11,20,16,51,1.20
2013,11,20,16,52,1.20
2013,11,20,16,53,1.20
2013,11,20,16,54,1.10
2013,11,20,16,55,1.10
2013,11,20,16,56,1.10
2013,11,20,16,57,1.10
2013,11,20,16,58,1.10
2013,11,20,16,59,1.10
2013,11,20,17,00,1.00
2013,11,20,17,01,1.00
2013,11,20,17,02,1.00
2013,11,20,17,03,1.00
2013,11,20,17,04,1.00
2013,11,20,17,05,1.00
2013,11,20,17,06,1.00
2013,11,20,17,07,0.90
2013,11,20,17,08,0.90
2013,11,20,17,09,0.90
2013,11,20,17,10,0.90
2013,11,20,17,11,0.90
2013,11,20,17,12,0.90
2013,11,20,17,13,0.90
2013,11,20,17,14,0.80
2013,11,20,17,15,0.80
2013,11,20,17,16,0.80
2013,11,20,17,17,0.80
2013,11,20,17,18,0.80
2013,11,20,17,19,0.80
2013,11,20,17,20,0.80
2013,11,20,17,21,0.80
2013,11,20,17,22,0.80
2013,11,20,17,23,0.80
2013,11,20,17,24,0.70
2013,11,20,17,25,0.70
2013,11,20,17,26,0.70
2013,11,20,17,27,0.70
2013,11,20,17,28,0.70
2013,11,20,17,29,0.70
2013,11,20,17,30,0.70
2013,11,20,17,31,0.60
2013,11,20,17,32,0.60
2013,11,20,17,33,0.60
2013,11,20,17,34,0.60
2013,11,20,17,35,0.60
2013,11,20,17,36,0.50
2013,11,20,17,37,0.50
2013,11,20,17,38,0.50
2013,11,20,17,39,0.50
2013,11,20,17,40,0.40
2013,11,20,17,41,0.40
2013,11,20,17,42,0.40
2013,11,20,17,43,0.40
2013,11,20,17,44,0.40
2013,11,20,17,45,0.40
2013,11,20,17,46,0.40
2013,11,20,17,47,0.40
2013,11,20,17,48,0.40
2013,11,20,17,49,0.40